GW0383 Weather Reports


time (UTC)temp
F
wind
direction
speed
knots
gust
knots
rain 1hr
in
rain 24hr
in
rain mn
in
humidity
%
barometer
mb
20260510033641 63 197 2.6 2.6 0.00 0.00 0.00 63 1006.0
20260510033139 63 149 0.0 0.9 0.00 0.00 0.00 63 1005.7
20260510032635 63 152 0.9 0.9 0.00 0.00 0.00 63 1005.7
20260510032131 63 136 0.0 0.0 0.00 0.00 0.00 63 1005.5
20260510031626 64 135 0.0 0.0 0.00 0.00 0.00 62 1005.8
20260510031123 64 156 0.0 1.7 0.00 0.00 0.00 62 1005.6
20260510030617 64 131 0.0 0.0 0.00 0.00 0.00 60 1005.5
20260510030115 65 131 0.0 0.0 0.00 0.00 0.00 58 1005.7
20260510025612 65 136 0.0 0.9 0.00 0.00 0.00 58 1005.8
20260510025109 64 106 0.0 0.0 0.00 0.00 0.00 59 1005.5
20260510024606 65 134 0.0 0.0 0.00 0.00 0.00 60 1005.7
20260510024103 65 133 0.0 0.0 0.00 0.00 0.00 60 1005.7
20260510023559 65 134 0.0 0.0 0.00 0.00 0.00 59 1005.5
20260510023056 66 112 0.0 0.0 0.00 0.00 0.00 58 1005.5
20260510022555 66 111 0.0 0.0 0.00 0.00 0.00 58 1005.4
20260510022050 66 114 0.0 0.0 0.00 0.00 0.00 58 1005.4
20260510021546 66 114 0.0 0.0 0.00 0.00 0.00 58 1005.3
20260510021044 65 130 0.0 0.0 0.00 0.00 0.00 60 1005.3
20260510020538 65 131 0.0 0.0 0.00 0.00 0.00 61 1005.3
20260510020034 65 131 0.0 0.0 0.00 0.00 0.00 61 1005.2
20260510015530 65 132 0.0 0.0 0.00 0.00 0.00 61 1005.1
20260510015026 66 132 0.0 0.0 0.00 0.00 0.00 60 1004.9
20260510014523 66 131 0.0 0.0 0.00 0.00 0.00 59 1004.9
20260510014020 66 130 0.0 0.0 0.00 0.00 0.00 57 1004.6
20260510013514 67 131 0.0 0.0 0.00 0.00 0.00 56 1004.8
20260510013011 67 130 0.0 0.0 0.00 0.00 0.00 56 1004.5
20260510012505 66 130 0.0 0.0 0.00 0.00 0.00 57 1004.3
20260510012001 66 130 0.0 0.0 0.00 0.00 0.00 57 1004.6
20260510011455 66 132 0.0 0.0 0.00 0.00 0.00 57 1004.2
20260510010951 66 121 0.0 0.0 0.00 0.00 0.00 57 1004.2
20260510010449 67 121 0.0 0.0 0.00 0.00 0.00 56 1004.1
20260510005946 67 121 0.0 0.0 0.00 0.00 0.00 54 1004.0
20260510005441 67 121 0.0 0.0 0.00 0.00 0.00 54 1004.1
20260510004939 67 121 0.0 0.0 0.00 0.00 0.00 55 1003.9
20260510004436 67 121 0.0 0.0 0.00 0.00 0.00 54 1003.7
20260510003934 67 122 0.0 0.0 0.00 0.00 0.00 54 1003.5
20260510003431 67 120 0.0 0.0 0.00 0.00 0.00 54 1003.3
20260510002930 67 121 0.0 0.9 0.00 0.00 0.00 54 1003.3
20260510002427 67 164 0.0 0.0 0.00 0.00 0.00 54 1003.3
20260510001924 68 164 0.0 0.0 0.00 0.00 0.00 54 1003.3
20260510001421 68 164 0.0 0.0 0.00 0.00 0.00 53 1003.4
20260510000919 68 164 0.0 0.0 0.00 0.00 0.00 53 1003.3
20260510000415 69 164 0.0 0.0 0.00 0.00 0.00 51 1003.5
20260509235911 70 164 0.0 0.0 0.00 0.00 0.00 51 1003.4
20260509235409 70 165 0.9 1.7 0.00 0.00 0.00 50 1003.4
20260509234904 71 161 0.9 0.9 0.00 0.00 0.00 49 1003.3
20260509234402 71 139 0.0 0.9 0.00 0.00 0.00 48 1003.3
20260509233859 71 114 0.0 0.9 0.00 0.00 0.00 48 1003.4
20260509233357 71 138 0.0 0.0 0.00 0.00 0.00 49 1003.2
20260509232852 71 135 0.0 0.0 0.00 0.00 0.00 49 1003.4
20260509232351 72 139 0.0 0.0 0.00 0.00 0.00 48 1003.3
20260509231846 71 130 0.0 0.0 0.00 0.00 0.00 48 1003.2
20260509231343 71 124 0.0 0.9 0.00 0.00 0.00 49 1003.2
20260509230841 72 144 0.0 0.0 0.00 0.00 0.00 49 1003.3
20260509230338 74 144 0.0 0.9 0.00 0.00 0.00 47 1003.2
20260509225833 75 147 0.9 0.9 0.00 0.00 0.00 46 1003.4
20260509225330 75 149 0.0 0.9 0.00 0.00 0.00 46 1003.1
20260509224826 75 150 0.9 0.9 0.00 0.00 0.00 45 1002.9
20260509224322 75 164 0.9 0.9 0.00 0.00 0.00 45 1003.2
20260509223819 75 163 1.7 1.7 0.00 0.00 0.00 49 1003.4
20260509223316 74 158 0.9 1.7 0.00 0.00 0.00 46 1003.2
20260509222813 74 152 0.9 1.7 0.00 0.00 0.00 48 1003.1
20260509222308 73 162 1.7 1.7 0.00 0.00 0.00 47 1003.0
20260509221804 71 170 1.7 1.7 0.00 0.00 0.00 48 1003.2
20260509221302 70 141 0.0 0.9 0.00 0.00 0.00 50 1003.3
20260509220757 71 150 0.9 0.9 0.00 0.00 0.00 49 1003.4
20260509220253 71 128 0.0 1.7 0.00 0.00 0.00 48 1003.4
20260509215748 71 145 0.0 0.9 0.00 0.00 0.00 50 1003.1
20260509215245 71 154 0.9 1.7 0.00 0.00 0.00 48 1003.3
20260509214742 72 179 0.9 2.6 0.00 0.00 0.00 50 1003.3
20260509214239 74 142 1.7 2.6 0.00 0.00 0.00 48 1003.2
20260509213736 74 151 0.0 1.7 0.00 0.00 0.00 46 1003.3
20260509213232 71 158 0.9 1.7 0.00 0.00 0.00 50 1003.0
20260509212730 70 166 0.9 1.7 0.00 0.00 0.00 49 1003.1
20260509212227 69 163 0.9 1.7 0.00 0.00 0.00 52 1003.1
20260509211722 69 175 2.6 2.6 0.00 0.00 0.00 52 1003.1
20260509211219 70 164 0.9 1.7 0.00 0.00 0.00 52 1002.8
20260509210716 70 135 0.0 1.7 0.00 0.00 0.00 50 1002.9
20260509210213 70 188 2.6 4.3 0.00 0.00 0.00 48 1003.0
20260509205713 70 148 0.9 2.6 0.00 0.00 0.00 49 1003.2
20260509205213 70 178 1.7 2.6 0.00 0.00 0.00 51 1002.9
20260509204709 70 186 1.7 1.7 0.00 0.00 0.00 52 1002.7
20260509204205 70 152 0.9 4.3 0.00 0.00 0.00 50 1003.0
20260509203701 70 180 1.7 4.3 0.00 0.00 0.00 51 1002.7
20260509203200 72 171 1.7 4.3 0.00 0.00 0.00 50 1002.8
20260509202655 74 137 0.0 2.6 0.00 0.00 0.00 48 1002.8
20260509202150 73 168 1.7 2.6 0.00 0.00 0.00 48 1002.9
20260509201646 76 154 1.7 4.3 0.00 0.00 0.00 47 1002.8
20260509201143 76 210 2.6 2.6 0.00 0.00 0.00 46 1003.0
20260509200639 72 141 0.0 1.7 0.00 0.00 0.00 50 1002.9
20260509200134 71 151 0.0 1.7 0.00 0.00 0.00 50 1003.0
20260509195630 72 115 0.0 2.6 0.00 0.00 0.00 51 1003.0
20260509195125 71 174 1.7 4.3 0.00 0.00 0.00 53 1003.2
20260509194625 71 131 0.0 0.9 0.00 0.00 0.00 52 1002.7
20260509194122 71 129 0.0 2.6 0.00 0.00 0.00 52 1003.4
20260509193618 73 113 0.0 0.9 0.00 0.00 0.00 50 1003.2
20260509193114 75 74 0.9 1.7 0.00 0.00 0.00 48 1003.2
20260509192611 74 202 1.7 4.3 0.00 0.00 0.00 47 1003.5
20260509192106 74 146 0.9 2.6 0.00 0.00 0.00 47 1003.5
20260509191601 76 171 2.6 4.3 0.00 0.00 0.00 46 1003.5
20260509191057 74 138 0.0 0.0 0.00 0.00 0.00 51 1003.7
20260509190554 74 204 1.7 2.6 0.00 0.00 0.00 51 1003.6
20260509190052 73 150 0.0 1.7 0.00 0.00 0.00 52 1003.6
20260509185549 71 118 0.0 0.9 0.00 0.00 0.00 52 1004.0
20260509185045 70 104 0.9 1.7 0.00 0.00 0.00 52 1004.1
20260509184543 71 160 1.7 2.6 0.00 0.00 0.00 54 1004.0
20260509184039 71 182 2.6 2.6 0.00 0.00 0.00 54 1004.2
20260509183535 72 152 1.7 2.6 0.00 0.00 0.00 50 1004.2
20260509183031 70 204 1.7 2.6 0.00 0.00 0.00 55 1004.5
20260509182527 71 119 0.0 1.7 0.00 0.00 0.00 56 1004.1
20260509182025 69 202 1.7 2.6 0.00 0.00 0.00 56 1004.3
20260509181523 69 168 0.9 2.6 0.00 0.00 0.00 60 1004.7
20260509181020 69 116 0.0 1.7 0.00 0.00 0.00 56 1004.6
20260509180515 69 135 0.0 1.7 0.00 0.00 0.00 57 1004.8
20260509180014 68 135 0.0 1.7 0.00 0.00 0.00 58 1004.8
20260509175508 68 140 0.0 1.7 0.00 0.00 0.00 59 1005.0
20260509175005 68 143 0.0 0.0 0.00 0.00 0.00 61 1005.2
20260509174502 67 132 0.0 0.0 0.00 0.00 0.00 62 1004.8
20260509173956 66 136 0.0 0.0 0.00 0.00 0.00 60 1005.0
20260509173451 66 154 0.0 0.0 0.00 0.00 0.00 61 1005.0
20260509172948 66 139 0.0 0.0 0.00 0.00 0.00 59 1005.2
20260509172445 66 157 0.9 1.7 0.00 0.00 0.00 56 1005.2
20260509171940 65 159 0.9 1.7 0.00 0.00 0.00 59 1005.6
20260509171436 66 162 0.9 1.7 0.00 0.00 0.00 59 1005.6
20260509170933 67 157 0.0 0.0 0.00 0.00 0.00 61 1005.5
20260509170429 67 145 0.9 1.7 0.00 0.00 0.00 58 1005.5
20260509165925 67 100 0.9 1.7 0.00 0.00 0.00 53 1005.3
20260509165419 67 166 0.9 0.9 0.00 0.00 0.00 56 1005.5
20260509164914 67 176 2.6 2.6 0.00 0.00 0.00 56 1005.5
20260509164411 67 168 0.9 2.6 0.00 0.00 0.00 57 1005.1
20260509163907 65 156 0.9 0.9 0.00 0.00 0.00 59 1005.5
20260509163404 65 188 1.7 1.7 0.00 0.00 0.00 59 1005.4
20260509162903 65 157 0.9 0.9 0.00 0.00 0.00 62 1005.4
20260509162402 63 155 0.9 1.7 0.00 0.00 0.00 60 1005.7
20260509161858 64 194 2.6 2.6 0.00 0.00 0.00 61 1005.4
20260509161354 64 154 0.9 1.7 0.00 0.00 0.00 61 1005.5
20260509160850 63 140 0.0 0.0 0.00 0.00 0.00 61 1005.7
20260509160346 63 136 0.0 1.7 0.00 0.00 0.00 62 1005.6
20260509155841 63 155 1.7 1.7 0.00 0.00 0.00 59 1005.6
20260509155338 64 176 1.7 2.6 0.00 0.00 0.00 62 1005.9
20260509154834 64 120 0.0 0.9 0.00 0.00 0.00 60 1005.7
20260509154331 64 142 0.0 2.6 0.00 0.00 0.00 60 1005.6
20260509153828 65 136 0.0 1.7 0.00 0.00 0.00 56 1005.8
20260509153324 66 101 0.9 0.9 0.00 0.00 0.00 55 1005.9
20260509152822 64 153 0.9 0.9 0.00 0.00 0.00 58 1005.6
20260509152317 64 96 0.0 0.9 0.00 0.00 0.00 57 1005.8
20260509151815 65 95 0.9 0.9 0.00 0.00 0.00 56 1005.8
20260509151311 66 112 0.0 0.9 0.00 0.00 0.00 54 1005.7
20260509150810 66 138 0.0 0.9 0.00 0.00 0.00 56 1005.7
20260509150307 66 105 0.0 0.9 0.00 0.00 0.00 55 1005.6
20260509145804 66 113 0.0 0.9 0.00 0.00 0.00 55 1005.5
20260509145306 65 135 0.0 0.0 0.00 0.00 0.00 58 1005.5
20260509144800 64 131 0.0 0.0 0.00 0.00 0.00 55 1005.4
20260509144257 62 131 0.0 0.0 0.00 0.00 0.00 60 1005.5
20260509143754 61 144 0.0 0.9 0.00 0.00 0.00 59 1005.5
20260509143252 60 141 0.9 1.7 0.00 0.00 0.00 62 1005.8
20260509142747 60 128 0.0 1.7 0.00 0.00 0.00 64 1005.5
20260509142244 61 158 0.9 0.9 0.00 0.00 0.00 61 1005.6
20260509141740 60 133 0.0 1.7 0.00 0.00 0.00 61 1005.9
20260509141237 59 144 0.0 0.9 0.00 0.00 0.00 62 1005.8
20260509140733 59 150 0.9 1.7 0.00 0.00 0.00 63 1006.0
20260509140231 58 134 0.0 1.7 0.00 0.00 0.00 61 1006.0
20260509135728 58 124 0.0 1.7 0.00 0.00 0.00 63 1006.1
20260509135226 58 158 0.9 1.7 0.00 0.00 0.00 61 1006.4
20260509134722 58 172 0.9 1.7 0.00 0.00 0.00 64 1006.2
20260509134220 58 185 0.9 0.9 0.00 0.00 0.00 64 1006.4
20260509133717 58 143 0.0 0.0 0.00 0.00 0.00 65 1006.1
20260509133214 57 139 0.0 0.0 0.00 0.00 0.00 65 1006.3
20260509132713 57 116 0.0 0.0 0.00 0.00 0.00 65 1006.3
20260509132211 56 117 0.0 0.0 0.00 0.00 0.00 66 1006.1
20260509131707 56 125 0.0 0.0 0.00 0.00 0.00 67 1006.3
20260509131204 56 115 0.0 0.0 0.00 0.00 0.00 64 1006.1
20260509130659 56 128 0.0 0.0 0.00 0.00 0.00 66 1006.0
20260509130156 56 137 0.0 0.0 0.00 0.00 0.00 66 1006.0
20260509125652 55 113 0.0 0.0 0.00 0.00 0.00 67 1006.1
20260509125149 55 121 0.0 0.0 0.00 0.00 0.00 67 1006.1
20260509124646 55 124 0.0 0.0 0.00 0.00 0.00 68 1006.2
20260509124142 54 124 0.0 0.0 0.00 0.00 0.00 67 1006.2
20260509123640 54 123 0.0 0.0 0.00 0.00 0.00 67 1006.2
20260509123137 54 106 0.0 0.9 0.00 0.00 0.00 68 1006.2
20260509122633 54 96 0.9 0.9 0.00 0.00 0.00 63 1006.3
20260509122130 54 103 0.9 2.6 0.00 0.00 0.00 65 1006.1
20260509121626 54 102 0.0 0.9 0.00 0.00 0.00 65 1006.2
20260509121125 53 111 0.0 0.9 0.00 0.00 0.00 66 1006.0
20260509120622 54 104 0.0 0.0 0.00 0.00 0.00 66 1006.0
20260509120120 53 123 0.0 0.9 0.00 0.00 0.00 66 1006.3
20260509115617 53 95 0.9 1.7 0.00 0.00 0.00 64 1006.0
20260509115115 54 97 0.9 1.7 0.00 0.00 0.00 65 1006.1
20260509114613 54 116 0.0 0.9 0.00 0.00 0.00 62 1005.9
20260509114112 54 100 0.0 1.7 0.00 0.00 0.00 59 1006.2
20260509113609 55 105 0.9 1.7 0.00 0.00 0.00 59 1006.0
20260509113107 55 113 0.0 1.7 0.00 0.00 0.00 54 1005.9
20260509112603 55 127 0.0 1.7 0.00 0.00 0.00 54 1005.7
20260509112100 55 118 0.0 1.7 0.00 0.00 0.00 54 1005.9
20260509111557 56 133 0.0 2.6 0.00 0.00 0.00 56 1005.6
20260509111054 56 129 0.0 1.7 0.00 0.00 0.00 54 1005.8
20260509110551 56 128 0.0 0.0 0.00 0.00 0.00 53 1005.8
20260509110048 56 157 0.9 1.7 0.00 0.00 0.00 53 1005.9
20260509105546 56 178 1.7 1.7 0.00 0.00 0.00 52 1005.9
20260509105044 56 164 0.9 1.7 0.00 0.00 0.00 52 1005.8
20260509104540 56 178 0.9 1.7 0.00 0.00 0.00 52 1005.8
20260509104037 56 194 2.6 2.6 0.00 0.00 0.00 53 1005.7
20260509103535 56 166 0.9 1.7 0.00 0.00 0.00 53 1005.7
20260509103033 55 177 1.7 1.7 0.00 0.00 0.00 53 1005.8
20260509102530 55 178 0.9 1.7 0.00 0.00 0.00 54 1005.8
20260509102027 56 161 0.9 1.7 0.00 0.00 0.00 52 1005.7
20260509101523 55 144 0.0 1.7 0.00 0.00 0.00 52 1005.7
20260509101020 55 176 0.9 1.7 0.00 0.00 0.00 53 1005.9
20260509100517 55 152 0.0 1.7 0.00 0.00 0.00 53 1005.9
20260509100015 55 162 0.9 0.9 0.00 0.00 0.00 53 1005.8
20260509095511 55 150 0.9 1.7 0.00 0.00 0.00 54 1006.0
20260509095009 55 148 0.0 0.0 0.00 0.00 0.00 53 1005.9
20260509094505 55 123 0.0 0.0 0.00 0.00 0.00 52 1005.8
20260509094002 55 130 0.0 0.9 0.00 0.00 0.00 52 1005.9
20260509093500 55 143 0.9 1.7 0.00 0.00 0.00 51 1006.1
20260509092957 56 180 0.9 1.7 0.00 0.00 0.00 52 1006.2
20260509092455 55 167 0.9 1.7 0.00 0.00 0.00 52 1006.0
20260509091954 55 137 0.0 0.0 0.00 0.00 0.00 51 1005.9
20260509091450 55 59 0.0 2.6 0.00 0.00 0.00 52 1006.0
20260509090947 56 112 0.0 0.9 0.00 0.00 0.00 52 1005.8
20260509090445 56 135 0.0 0.9 0.00 0.00 0.00 52 1006.0
20260509085942 56 112 0.0 0.9 0.00 0.00 0.00 51 1006.1
20260509085439 56 100 0.9 1.7 0.00 0.00 0.00 51 1006.1
20260509084935 56 124 0.0 0.9 0.00 0.00 0.00 52 1006.4
20260509084432 57 120 0.9 0.9 0.00 0.00 0.00 51 1006.2
20260509083929 57 101 0.0 2.6 0.00 0.00 0.00 50 1006.1
20260509083426 57 126 0.0 4.3 0.00 0.00 0.00 48 1006.1
20260509082923 57 138 0.0 1.7 0.00 0.00 0.00 49 1006.4
20260509082421 57 147 0.0 0.0 0.00 0.00 0.00 49 1006.2
20260509081917 57 208 1.7 2.6 0.00 0.00 0.00 49 1006.5
20260509081415 57 124 0.0 0.9 0.00 0.00 0.00 49 1006.2
20260509080912 57 156 0.9 1.7 0.00 0.00 0.00 48 1006.3
20260509080410 57 164 0.0 0.9 0.00 0.00 0.00 49 1006.3
20260509075908 57 164 1.7 1.7 0.00 0.00 0.00 50 1006.4
20260509075404 56 192 1.7 2.6 0.00 0.00 0.00 50 1006.3
20260509074902 56 234 2.6 4.3 0.00 0.00 0.00 50 1006.4
20260509074359 56 196 1.7 2.6 0.00 0.00 0.00 51 1006.5
20260509073855 56 196 2.6 2.6 0.00 0.00 0.00 50 1006.4
20260509073352 56 200 2.6 2.6 0.00 0.00 0.00 50 1006.4
20260509072849 56 176 1.7 2.6 0.00 0.00 0.00 51 1006.7
20260509072345 56 143 0.0 1.7 0.00 0.00 0.00 50 1006.7
20260509071842 56 172 0.9 1.7 0.00 0.00 0.00 50 1006.7
20260509071339 57 160 0.9 2.6 0.00 0.00 0.00 50 1006.5
20260509070836 57 192 2.6 2.6 0.00 0.00 0.00 49 1006.5
20260509070333 57 181 3.5 6.1 0.00 0.00 0.00 49 1006.6
20260509065829 56 199 1.7 4.3 0.00 0.00 0.00 49 1006.6
20260509065325 56 192 1.7 4.3 0.00 0.00 0.00 50 1006.7
20260509064821 57 205 1.7 1.7 0.00 0.00 0.00 49 1006.6
20260509064319 57 174 0.9 2.6 0.00 0.00 0.00 48 1006.8
20260509063816 57 154 0.9 2.6 0.00 0.00 0.00 48 1006.5
20260509063312 57 176 1.7 2.6 0.00 0.00 0.00 48 1006.7
20260509062810 57 185 1.7 2.6 0.00 0.00 0.00 48 1006.8
20260509062307 57 176 0.0 1.7 0.00 0.00 0.00 48 1006.9
20260509061804 57 148 1.7 2.6 0.00 0.00 0.00 47 1006.9
20260509061302 57 164 1.7 2.6 0.00 0.00 0.00 47 1007.0
20260509060759 58 174 1.7 2.6 0.00 0.00 0.00 47 1007.1
20260509060256 57 171 1.7 4.3 0.00 0.00 0.00 47 1006.7
20260509055751 57 167 1.7 2.6 0.00 0.00 0.00 49 1006.8
20260509055247 57 204 2.6 4.3 0.00 0.00 0.00 49 1007.2
20260509054744 57 211 2.6 4.3 0.00 0.00 0.00 50 1007.0
20260509054240 57 207 2.6 5.2 0.00 0.00 0.00 49 1006.9
20260509053739 57 207 2.6 4.3 0.00 0.00 0.00 48 1007.0
20260509053235 57 210 3.5 5.2 0.00 0.00 0.00 47 1007.1
20260509052734 57 206 3.5 7.0 0.00 0.00 0.00 48 1007.0
20260509052231 57 211 3.5 5.2 0.00 0.00 0.00 49 1007.0
20260509051728 58 200 3.5 5.2 0.00 0.00 0.00 47 1007.1
20260509051226 58 212 2.6 5.2 0.00 0.00 0.00 48 1007.0
20260509050723 58 217 3.5 5.2 0.00 0.00 0.00 47 1007.0
20260509050219 59 205 3.5 6.1 0.00 0.00 0.00 46 1007.1
20260509045717 59 204 4.3 7.0 0.00 0.00 0.00 46 1007.1
20260509045214 58 209 3.5 6.1 0.00 0.00 0.00 46 1007.2
20260509044711 59 209 4.3 6.1 0.00 0.00 0.00 46 1007.1
20260509044209 59 201 3.5 7.8 0.00 0.00 0.00 47 1007.1
20260509043705 59 191 4.3 7.0 0.00 0.00 0.00 46 1007.1
20260509043201 59 209 3.5 5.2 0.00 0.00 0.00 47 1006.8
20260509042657 59 187 4.3 6.1 0.00 0.00 0.00 46 1006.9
20260509042153 59 201 4.3 6.1 0.00 0.00 0.00 47 1007.1
20260509041650 58 219 3.5 6.1 0.00 0.00 0.00 47 1006.8
20260509041148 59 162 2.6 7.0 0.00 0.00 0.00 47 1007.0
20260509040646 58 194 3.5 6.1 0.00 0.00 0.00 47 1007.2
20260509040142 58 183 3.5 6.1 0.00 0.00 0.00 48 1007.1
20260509035639 58 185 3.5 5.2 0.00 0.00 0.00 48 1007.0
20260509035136 59 175 2.6 6.1 0.00 0.00 0.00 48 1006.8
20260509034633 59 182 2.6 6.1 0.00 0.00 0.00 47 1007.3
20260509034130 59 197 3.5 5.2 0.00 0.00 0.00 47 1007.3